Sheldon, IA

5:42 PM CDT on June 23, 2017 (GMT -0500)
Sheldon Municipal

Weather History for KSHL - November, 2014

Change the Weather History Date:

Monday, November 17, 2014

  Actual Average Record
Temperature  
Mean Temperature 8 °F -  
Max Temperature 14 °F 43 °F 68 °F (1953)
Min Temperature 3 °F 24 °F -9 °F (1959)
Degree Days  
Heating Degree Days 56    
Moisture  
Dew Point 1 °F    
Average Humidity 74    
Maximum Humidity 85    
Minimum Humidity 67    
Precipitation  
Precipitation 0.00 in - - ()
Sea Level Pressure  
Sea Level Pressure 30.08 in    
Wind  
Wind Speed 16 mph (WNW)    
Max Wind Speed 28 mph    
Max Gust Speed 37 mph    
Visibility 10 miles    
Events Snow    
Averages and records for this station are not official NWS values.
T = Trace of Precipitation, MM = Missing Value Source: NWS Daily Summary

Daily Weather History Graph

Daily Weather History Graph

Search for Another Location

Airport or City:

Trip Planner

Search our weather history database for the weather conditions in past years. The results will help you decide how hot, cold, wet, or windy it might be!

Date:

Astronomy

Nov. 17, 2014 Rise Set
Actual Time 7:18 AM CST 4:57 PM CST
Civil Twilight 6:47 AM CST 5:28 PM CST
Nautical Twilight 6:13 AM CST 6:02 PM CST
Astronomical Twilight 5:39 AM CST 6:36 PM CST
Moon 2:13 AM CST (11/17) 2:28 PM CST (11/17)
Length of Visible Light 10h 40m
Length of Day
9h 38m
Waning Crescent, 22% of the Moon is Illuminated
Nov 17
Waning Crescent
Nov 22
New
Nov 29
First Quarter
Dec 6
Full
Dec 14
Last Quarter

Hourly Weather History & Observations

Time (CST) Temp. Windchill Dew Point Humidity Pressure Visibility Wind Dir Wind Speed Gust Speed Precip Events Conditions
12:15 AM 12.2 °F -2.5 °F 8.6 °F 85% 30.00 in 10.0 mi WNW 12.7 mph 19.6 mph N/A   Mostly Cloudy
12:35 AM 12.2 °F -3.1 °F 8.6 °F 85% 30.00 in 10.0 mi WNW 13.8 mph 19.6 mph N/A   Overcast
12:55 AM 12.2 °F -4.8 °F 8.6 °F 85% 30.00 in 10.0 mi NW 17.3 mph - N/A   Mostly Cloudy
1:15 AM 14.0 °F -3.4 °F 8.6 °F 79% 30.01 in 10.0 mi NW 19.6 mph 25.3 mph N/A   Overcast
1:35 AM 14.0 °F -2.0 °F 8.6 °F 79% 30.01 in 9.0 mi NW 16.1 mph - N/A   Mostly Cloudy
1:55 AM 14.0 °F -3.9 °F 8.6 °F 79% 30.01 in 5.0 mi NW 20.7 mph - N/A Snow Light Snow
2:15 AM 12.2 °F -4.3 °F 6.8 °F 79% 30.02 in 9.0 mi NW 16.1 mph 25.3 mph N/A Snow Light Snow
2:35 AM 12.2 °F -5.3 °F 6.8 °F 79% 30.03 in 10.0 mi NW 18.4 mph 25.3 mph N/A   Overcast
2:55 AM 10.4 °F -9.9 °F 3.2 °F 73% 30.04 in 10.0 mi NNW 24.2 mph - N/A   Overcast
3:15 AM 10.4 °F -8.6 °F 1.4 °F 67% 30.04 in 10.0 mi NNW 20.7 mph - N/A   Overcast
3:35 AM 8.6 °F -9.5 °F -0.4 °F 67% 30.05 in 10.0 mi NNW 17.3 mph 24.2 mph N/A   Overcast
3:55 AM 6.8 °F -10.0 °F -2.2 °F 67% 30.05 in 10.0 mi NW 13.8 mph - N/A   Scattered Clouds
4:15 AM 5.0 °F -11.6 °F -0.4 °F 78% 30.06 in 10.0 mi WNW 12.7 mph - N/A   Partly Cloudy
4:35 AM 6.8 °F -11.3 °F -0.4 °F 72% 30.06 in 10.0 mi NW 16.1 mph - N/A   Clear
4:55 AM 5.0 °F -14.2 °F -2.2 °F 72% 30.06 in 10.0 mi WNW 17.3 mph 23.0 mph N/A   Scattered Clouds
5:15 AM 5.0 °F -13.0 °F -0.4 °F 78% 30.06 in 10.0 mi WNW 15.0 mph - N/A   Partly Cloudy
5:35 AM 3.2 °F -13.9 °F -2.2 °F 78% 30.06 in 10.0 mi West 12.7 mph - N/A   Mostly Cloudy
5:55 AM 3.2 °F -13.9 °F -2.2 °F 78% 30.06 in 10.0 mi WNW 12.7 mph 19.6 mph N/A   Scattered Clouds
6:15 AM 3.2 °F -15.3 °F -2.2 °F 78% 30.05 in 10.0 mi WNW 15.0 mph - N/A   Clear
6:35 AM 3.2 °F -16.5 °F -2.2 °F 78% 30.05 in 10.0 mi WNW 17.3 mph - N/A   Scattered Clouds
6:55 AM 3.2 °F -15.9 °F -2.2 °F 78% 30.06 in 10.0 mi WNW 16.1 mph - N/A   Partly Cloudy
7:15 AM 3.2 °F -15.3 °F -2.2 °F 78% 30.07 in 10.0 mi WNW 15.0 mph 21.9 mph N/A   Clear
7:35 AM 3.2 °F -13.9 °F -4.0 °F 72% 30.07 in 10.0 mi WNW 12.7 mph - N/A   Mostly Cloudy
7:55 AM 3.2 °F -14.6 °F -4.0 °F 72% 30.07 in 10.0 mi West 13.8 mph - N/A   Overcast
8:15 AM 3.2 °F -14.6 °F -4.0 °F 72% 30.07 in 10.0 mi WNW 13.8 mph - N/A   Mostly Cloudy
8:35 AM 5.0 °F -13.6 °F -2.2 °F 72% 30.08 in 10.0 mi WNW 16.1 mph - N/A   Partly Cloudy
8:55 AM 5.0 °F -13.0 °F -2.2 °F 72% 30.08 in 10.0 mi WNW 15.0 mph 20.7 mph N/A   Clear
9:15 AM 5.0 °F -13.0 °F -2.2 °F 72% 30.08 in 10.0 mi WNW 15.0 mph 21.9 mph N/A   Scattered Clouds
9:35 AM 5.0 °F -14.2 °F -2.2 °F 72% 30.08 in 10.0 mi WNW 17.3 mph 24.2 mph N/A   Mostly Cloudy
9:55 AM 5.0 °F -14.7 °F -2.2 °F 72% 30.08 in 10.0 mi WNW 18.4 mph 25.3 mph N/A   Mostly Cloudy
10:15 AM 6.8 °F -12.9 °F -2.2 °F 67% 30.08 in 10.0 mi WNW 19.6 mph 29.9 mph N/A   Mostly Cloudy
10:35 AM 6.8 °F -13.4 °F -0.4 °F 72% 30.08 in 10.0 mi NW 20.7 mph - N/A   Mostly Cloudy
10:55 AM 6.8 °F -13.8 °F -0.4 °F 72% 30.08 in 10.0 mi WNW 21.9 mph 29.9 mph N/A   Mostly Cloudy
11:15 AM 8.6 °F -10.0 °F -0.4 °F 67% 30.08 in 10.0 mi WNW 18.4 mph 27.6 mph N/A   Mostly Cloudy
11:35 AM 8.6 °F -11.9 °F -0.4 °F 67% 30.08 in 10.0 mi NW 23.0 mph 29.9 mph N/A   Mostly Cloudy
11:55 AM 8.6 °F -12.3 °F 1.4 °F 73% 30.07 in 9.0 mi WNW 24.2 mph 36.8 mph N/A   Overcast
12:15 PM 8.6 °F -12.7 °F 1.4 °F 73% 30.07 in - NW 25.3 mph 32.2 mph N/A   Overcast
12:35 PM 8.6 °F -12.3 °F 1.4 °F 73% 30.07 in 8.0 mi WNW 24.2 mph 33.4 mph N/A   Overcast
12:55 PM 10.4 °F -9.5 °F 1.4 °F 67% 30.07 in 9.0 mi WNW 23.0 mph 31.1 mph N/A   Overcast
1:15 PM 10.4 °F -10.3 °F 1.4 °F 67% 30.07 in 10.0 mi WNW 25.3 mph - N/A   Overcast
1:35 PM 10.4 °F -8.6 °F 1.4 °F 67% 30.07 in 10.0 mi WNW 20.7 mph 29.9 mph N/A   Overcast
1:55 PM 10.4 °F -9.5 °F 3.2 °F 73% 30.07 in 9.0 mi WNW 23.0 mph 29.9 mph N/A   Overcast
2:15 PM 10.4 °F -9.9 °F 3.2 °F 73% 30.08 in 7.0 mi WNW 24.2 mph 34.5 mph N/A   Overcast
2:35 PM 10.4 °F -11.0 °F 3.2 °F 73% 30.08 in 9.0 mi NW 27.6 mph - N/A   Overcast
2:55 PM 10.4 °F -9.9 °F 3.2 °F 73% 30.09 in 9.0 mi NW 24.2 mph 32.2 mph N/A   Overcast
3:15 PM 10.4 °F -9.9 °F 3.2 °F 73% 30.10 in 10.0 mi WNW 24.2 mph 32.2 mph N/A   Overcast
3:35 PM 10.4 °F -8.6 °F 3.2 °F 73% 30.10 in 10.0 mi WNW 20.7 mph 28.8 mph N/A   Overcast
3:55 PM 10.4 °F -8.2 °F 3.2 °F 73% 30.11 in 10.0 mi WNW 19.6 mph 26.5 mph N/A   Mostly Cloudy
4:15 PM 10.4 °F -6.6 °F 3.2 °F 73% 30.11 in 10.0 mi WNW 16.1 mph 25.3 mph N/A   Scattered Clouds
4:35 PM 10.4 °F -6.0 °F 1.4 °F 67% 30.12 in 10.0 mi WNW 15.0 mph 21.9 mph N/A   Clear
4:55 PM 10.4 °F -6.0 °F 1.4 °F 67% 30.12 in 10.0 mi WNW 15.0 mph - N/A   Clear
5:15 PM 8.6 °F -5.5 °F 1.4 °F 73% 30.13 in 10.0 mi WNW 10.4 mph 17.3 mph N/A   Clear
5:35 PM 8.6 °F -5.5 °F 1.4 °F 73% 30.13 in 10.0 mi WNW 10.4 mph - N/A   Clear
5:55 PM 6.8 °F -7.8 °F -0.4 °F 72% 30.13 in 10.0 mi WNW 10.4 mph - N/A   Clear
6:15 PM 8.6 °F -4.7 °F 1.4 °F 73% 30.13 in 10.0 mi WNW 9.2 mph - N/A   Clear
6:35 PM 5.0 °F -8.1 °F -0.4 °F 78% 30.13 in 10.0 mi WNW 8.1 mph - N/A   Clear
6:55 PM 3.2 °F -10.3 °F -2.2 °F 78% 30.13 in 10.0 mi West 8.1 mph - N/A   Clear
7:15 PM 5.0 °F -9.1 °F -2.2 °F 72% 30.13 in 10.0 mi WNW 9.2 mph - N/A   Clear
7:35 PM 5.0 °F -10.0 °F -2.2 °F 72% 30.13 in 10.0 mi WNW 10.4 mph - N/A   Clear
7:55 PM 6.8 °F -9.3 °F -2.2 °F 67% 30.12 in 10.0 mi WNW 12.7 mph - N/A   Clear
8:15 PM 5.0 °F -10.8 °F -2.2 °F 72% 30.12 in 10.0 mi West 11.5 mph - N/A   Clear
8:35 PM 3.2 °F -11.3 °F -4.0 °F 72% 30.12 in 10.0 mi West 9.2 mph - N/A   Clear
8:55 PM 3.2 °F -12.2 °F -4.0 °F 72% 30.12 in 10.0 mi West 10.4 mph - N/A   Clear
9:15 PM 3.2 °F -12.2 °F -4.0 °F 72% 30.11 in 10.0 mi West 10.4 mph - N/A   Scattered Clouds
9:35 PM 3.2 °F -13.1 °F -4.0 °F 72% 30.11 in 10.0 mi West 11.5 mph - N/A   Mostly Cloudy
9:55 PM 3.2 °F -12.2 °F -2.2 °F 78% 30.11 in 9.0 mi West 10.4 mph - N/A   Mostly Cloudy
10:15 PM 6.8 °F -10.0 °F 1.4 °F 79% 30.11 in 8.0 mi West 13.8 mph - N/A Snow Light Snow
10:35 PM 6.8 °F -10.0 °F 1.4 °F 79% 30.11 in 10.0 mi WNW 13.8 mph - N/A Snow Light Snow
10:55 PM 8.6 °F -7.0 °F 3.2 °F 79% 30.11 in 10.0 mi WNW 12.7 mph - N/A   Overcast
11:15 PM 6.8 °F -9.3 °F 1.4 °F 79% 30.10 in 10.0 mi WNW 12.7 mph 19.6 mph N/A   Overcast
11:35 PM 6.8 °F -8.6 °F 1.4 °F 79% 30.10 in 10.0 mi WNW 11.5 mph 18.4 mph N/A   Overcast
11:55 PM 8.6 °F -8.3 °F 1.4 °F 73% 30.10 in 10.0 mi NW 15.0 mph - N/A   Overcast